York, NE

2:55 PM CDT on August 19, 2017 (GMT -0500)
York Municipal

Weather History for KJYR - April, 2014

Change the Weather History Date:

Tuesday, April 22, 2014

  Actual Average Record
Temperature  
Mean Temperature 53 °F -  
Max Temperature 71 °F 63 °F 92 °F (1950)
Min Temperature 35 °F 41 °F 26 °F (1992)
Degree Days  
Heating Degree Days 12    
Growing Degree Days 3 (Base 50)    
Moisture  
Dew Point 31 °F    
Average Humidity 44    
Maximum Humidity 81    
Minimum Humidity 20    
Precipitation  
Precipitation 0.00 in - - ()
Sea Level Pressure  
Sea Level Pressure 30.06 in    
Wind  
Wind Speed 9 mph (ESE)    
Max Wind Speed 22 mph    
Max Gust Speed 29 mph    
Visibility 10 miles    
Events      
Averages and records for this station are not official NWS values.
T = Trace of Precipitation, MM = Missing Value Source: NWS Daily Summary

Daily Weather History Graph

Daily Weather History Graph

Search for Another Location

Airport or City:

Trip Planner

Search our weather history database for the weather conditions in past years. The results will help you decide how hot, cold, wet, or windy it might be!

Date:

Astronomy

Apr. 22, 2014 Rise Set
Actual Time 6:40 AM CDT 8:17 PM CDT
Civil Twilight 6:12 AM CDT 8:46 PM CDT
Nautical Twilight 5:37 AM CDT 9:21 PM CDT
Astronomical Twilight 4:59 AM CDT 9:59 PM CDT
Moon 2:33 AM CDT (4/22) 1:17 PM CDT (4/22)
Length of Visible Light 14h 34m
Length of Day
13h 36m
Last Quarter, 46% of the Moon is Illuminated
Apr 22
Last Quarter
Apr 29
New
May 6
First Quarter
May 14
Full
May 21
Last Quarter

Hourly Weather History & Observations

Time (CDT) Temp. Windchill Dew Point Humidity Pressure Visibility Wind Dir Wind Speed Gust Speed Precip Events Conditions
12:15 AM 50.0 °F - 30.2 °F 47% 30.17 in 10.0 mi NNE 4.6 mph - N/A   Clear
12:35 AM 48.2 °F - 30.2 °F 50% 30.17 in 10.0 mi Calm Calm - N/A   Clear
12:55 AM 48.2 °F - 30.2 °F 50% 30.17 in 10.0 mi NNE 5.8 mph - N/A   Clear
1:15 AM 48.2 °F - 30.2 °F 50% 30.18 in 10.0 mi NNE 5.8 mph - N/A   Clear
1:35 AM 46.4 °F 43.5 °F 30.2 °F 53% 30.17 in 10.0 mi NNE 5.8 mph - N/A   Clear
1:55 AM 46.4 °F 43.5 °F 30.2 °F 53% 30.17 in 10.0 mi NNE 5.8 mph - N/A   Clear
2:15 AM 41.0 °F 37.1 °F 28.4 °F 61% 30.17 in 10.0 mi NNE 5.8 mph - N/A   Clear
2:35 AM 41.0 °F 36.4 °F 28.4 °F 61% 30.17 in 10.0 mi NNE 6.9 mph - N/A   Clear
2:55 AM 41.0 °F 37.1 °F 28.4 °F 61% 30.16 in 10.0 mi NNE 5.8 mph - N/A   Clear
3:15 AM 41.0 °F 37.1 °F 30.2 °F 65% 30.15 in 10.0 mi NNE 5.8 mph - N/A   Clear
3:35 AM 37.4 °F 32.8 °F 28.4 °F 70% 30.15 in 10.0 mi NE 5.8 mph - N/A   Clear
3:55 AM 37.4 °F 34.9 °F 28.4 °F 70% 30.15 in 10.0 mi NE 3.5 mph - N/A   Clear
4:15 AM 39.2 °F 37.0 °F 30.2 °F 70% 30.15 in 10.0 mi NE 3.5 mph - N/A   Clear
4:35 AM 39.2 °F - 30.2 °F 70% 30.16 in 10.0 mi Calm Calm - N/A   Clear
4:55 AM 41.0 °F 38.0 °F 30.2 °F 65% 30.16 in 10.0 mi ENE 4.6 mph - N/A   Clear
5:15 AM 37.4 °F 32.1 °F 28.4 °F 70% 30.15 in 10.0 mi ENE 6.9 mph - N/A   Clear
5:35 AM 35.6 °F 30.7 °F 28.4 °F 75% 30.15 in 10.0 mi ENE 5.8 mph - N/A   Clear
5:55 AM 37.4 °F 34.9 °F 30.2 °F 75% 30.15 in 10.0 mi ENE 3.5 mph - N/A   Clear
6:15 AM 37.4 °F 34.9 °F 30.2 °F 75% 30.15 in 10.0 mi NE 3.5 mph - N/A   Clear
6:35 AM 35.6 °F - 30.2 °F 81% 30.16 in 10.0 mi Calm Calm - N/A   Clear
6:55 AM 37.4 °F 33.8 °F 32.0 °F 81% 30.16 in 10.0 mi ESE 4.6 mph - N/A   Clear
7:15 AM 37.4 °F 33.8 °F 32.0 °F 81% 30.16 in 10.0 mi East 4.6 mph - N/A   Clear
7:35 AM 37.4 °F 33.8 °F 32.0 °F 81% 30.16 in 10.0 mi East 4.6 mph - N/A   Clear
7:55 AM 42.8 °F 38.0 °F 35.6 °F 76% 30.16 in 10.0 mi ESE 8.1 mph - N/A   Clear
8:15 AM 46.4 °F 41.5 °F 35.6 °F 66% 30.16 in 10.0 mi ESE 10.4 mph - N/A   Clear
8:35 AM 48.2 °F - 33.8 °F 58% 30.17 in 10.0 mi SSE 9.2 mph - N/A   Clear
8:55 AM 48.2 °F - 33.8 °F 58% 30.18 in 10.0 mi SSE 9.2 mph - N/A   Clear
9:15 AM 50.0 °F - 32.0 °F 50% 30.17 in 10.0 mi SE 10.4 mph - N/A   Clear
9:35 AM 51.8 °F - 32.0 °F 47% 30.16 in 10.0 mi ESE 15.0 mph 19.6 mph N/A   Clear
9:55 AM 53.6 °F - 32.0 °F 44% 30.15 in 10.0 mi ESE 12.7 mph - N/A   Clear
10:15 AM 55.4 °F - 32.0 °F 41% 30.15 in 10.0 mi SE 12.7 mph - N/A   Clear
10:35 AM 55.4 °F - 30.2 °F 38% 30.16 in 10.0 mi SSE 10.4 mph - N/A   Clear
10:55 AM 57.2 °F - 32.0 °F 38% 30.15 in 10.0 mi ESE 13.8 mph - N/A   Clear
11:15 AM 59.0 °F - 32.0 °F 36% 30.15 in 10.0 mi SE 12.7 mph - N/A   Clear
11:35 AM 59.0 °F - 32.0 °F 36% 30.14 in 10.0 mi ESE 13.8 mph 19.6 mph N/A   Clear
11:55 AM 59.0 °F - 32.0 °F 36% 30.13 in 10.0 mi SE 12.7 mph 20.7 mph N/A   Clear
12:15 PM 62.6 °F - 32.0 °F 32% 30.12 in 10.0 mi SE 13.8 mph 20.7 mph N/A   Clear
12:35 PM 62.6 °F - 32.0 °F 32% 30.12 in 10.0 mi SE 12.7 mph 20.7 mph N/A   Clear
12:55 PM 64.4 °F - 30.2 °F 28% 30.11 in 10.0 mi SSE 13.8 mph 19.6 mph N/A   Clear
1:15 PM 66.2 °F - 32.0 °F 28% 30.10 in 10.0 mi SE 10.4 mph - N/A   Clear
1:35 PM 66.2 °F - 30.2 °F 26% 30.08 in 10.0 mi SE 13.8 mph 18.4 mph N/A   Partly Cloudy
1:55 PM 66.2 °F - 30.2 °F 26% 30.07 in 10.0 mi SSE 12.7 mph 19.6 mph N/A   Scattered Clouds
2:15 PM 68.0 °F - 32.0 °F 26% 30.05 in 10.0 mi South 11.5 mph 20.7 mph N/A   Clear
2:35 PM 68.0 °F - 28.4 °F 23% 30.04 in 10.0 mi SSE 12.7 mph 21.9 mph N/A   Clear
2:55 PM 69.8 °F - 30.2 °F 23% 30.03 in 10.0 mi SSE 16.1 mph 20.7 mph N/A   Clear
3:15 PM 71.6 °F - 30.2 °F 22% 30.02 in 10.0 mi SSE 17.3 mph 20.7 mph N/A   Scattered Clouds
3:35 PM 71.6 °F - 28.4 °F 20% 30.01 in 10.0 mi SSE 13.8 mph 23.0 mph N/A   Scattered Clouds
3:55 PM 71.6 °F - 30.2 °F 22% 29.99 in 10.0 mi SSE 13.8 mph - N/A   Partly Cloudy
4:15 PM 71.6 °F - 28.4 °F 20% 29.98 in 10.0 mi SSE 20.7 mph 28.8 mph N/A   Partly Cloudy
4:35 PM 69.8 °F - 28.4 °F 21% 29.97 in 10.0 mi South 17.3 mph - N/A   Scattered Clouds
4:55 PM 69.8 °F - 30.2 °F 23% 29.96 in 10.0 mi SSE 18.4 mph 24.2 mph N/A   Scattered Clouds
5:15 PM 69.8 °F - 30.2 °F 23% 29.95 in 10.0 mi SSE 17.3 mph 25.3 mph N/A   Mostly Cloudy
5:35 PM 69.8 °F - 30.2 °F 23% 29.94 in 10.0 mi SSE 21.9 mph 26.5 mph N/A   Overcast
5:55 PM 69.8 °F - 30.2 °F 23% 29.94 in 10.0 mi SSE 19.6 mph 25.3 mph N/A   Overcast
6:15 PM 71.6 °F - 32.0 °F 23% 29.93 in 10.0 mi SSE 19.6 mph 24.2 mph N/A   Mostly Cloudy
6:35 PM 68.0 °F - 32.0 °F 26% 29.92 in 10.0 mi SSE 18.4 mph 25.3 mph N/A   Mostly Cloudy
6:55 PM 68.0 °F - 32.0 °F 26% 29.92 in 10.0 mi SSE 13.8 mph 18.4 mph N/A   Overcast
7:15 PM 68.0 °F - 32.0 °F 26% 29.92 in 10.0 mi South 16.1 mph - N/A   Scattered Clouds
7:35 PM 68.0 °F - 30.2 °F 24% 29.92 in 10.0 mi SSE 15.0 mph - N/A   Clear
7:55 PM 66.2 °F - 30.2 °F 26% 29.92 in 10.0 mi SSE 13.8 mph - N/A   Clear
8:15 PM 64.4 °F - 32.0 °F 30% 29.91 in 10.0 mi SE 13.8 mph - N/A   Clear
8:35 PM 62.6 °F - 32.0 °F 32% 29.91 in 10.0 mi SE 15.0 mph - N/A   Partly Cloudy
8:55 PM 62.6 °F - 32.0 °F 32% 29.91 in 10.0 mi SE 13.8 mph - N/A   Scattered Clouds
9:15 PM 60.8 °F - 32.0 °F 34% 29.92 in 10.0 mi SE 15.0 mph - N/A   Mostly Cloudy
9:35 PM 60.8 °F - 32.0 °F 34% 29.92 in 10.0 mi SE 16.1 mph 23.0 mph N/A   Mostly Cloudy
9:55 PM 59.0 °F - 32.0 °F 36% 29.92 in 10.0 mi SE 17.3 mph 23.0 mph N/A   Mostly Cloudy
10:15 PM 59.0 °F - 32.0 °F 36% 29.92 in 10.0 mi SE 17.3 mph 21.9 mph N/A   Mostly Cloudy
10:35 PM 57.2 °F - 32.0 °F 38% 29.91 in 10.0 mi SE 17.3 mph - N/A   Mostly Cloudy
10:55 PM 57.2 °F - 32.0 °F 38% 29.91 in 10.0 mi SE 18.4 mph - N/A   Mostly Cloudy
11:15 PM 57.2 °F - 32.0 °F 38% 29.90 in 10.0 mi SE 17.3 mph - N/A   Scattered Clouds
11:35 PM 57.2 °F - 32.0 °F 38% 29.90 in 10.0 mi SE 18.4 mph - N/A   Mostly Cloudy
11:55 PM 57.2 °F - 32.0 °F 38% 29.90 in 10.0 mi SE 18.4 mph - N/A   Overcast